Regional Weather Roundup
Issued by NWS

Home | Current Version | Previous Version | Graphics & Text | Print | Product List | Glossary Off
Versions: 1 2 3 4 5 6 7 8 9 10 11 12 13 14 15 16 17 18 19 20 21 22 23 24 25 26 27 28 29 30 31 32 33 34 35 36 37 38 39 40 41 42 43 44 45 46 47 48 49 50

000
ASUS43 KMKX 310421
RWRWI

WISCONSIN REGIONAL WEATHER ROUNDUP
NATIONAL WEATHER SERVICE MILWAUKEE/SULLIVAN WI
1100 PM CDT SAT AUG 30 2014

NOTE: "FAIR" INDICATES FEW OR NO CLOUDS BELOW 12,000 FEET WITH NO
SIGNIFICANT WEATHER AND/OR OBSTRUCTIONS TO VISIBILITY.

WIZ001-002-006>008-014>016-023>028-310500-
NORTHWEST WISCONSIN

CITY           SKY/WX    TMP DP  RH WIND       PRES   REMARKS
SUPERIOR ARPT  CLOUDY    61  59  92 CALM      29.91S
ASHLAND        FOG       54  53  97 CALM      29.94R VSB 1/2
HAYWARD        CLOUDY    60  57  89 E5        29.93S
SIREN          PTCLDY    62  59  91 E5        29.91S
RICE LAKE      CLEAR     58  56  92 CALM      29.93R
LADYSMITH      CLEAR     58  56  95 NE5       29.94S
EAU CLAIRE     FOG       59  59 100 CALM      29.90S VSB 1/2
MENOMONIE      CLEAR     60  59  96 CALM      29.91S
NEW RICHMOND   CLOUDY    61  61  99 E5        29.90S
OSCEOLA        CLOUDY    64  64  99 CALM      29.92S
$$

WIZ003>005-009-010-017-018-310500-
NORTH CENTRAL WISCONSIN

CITY           SKY/WX    TMP DP  RH WIND       PRES   REMARKS
WOODRUFF       MOCLDY    57  55  92 CALM      29.93S
RHINELANDER    CLOUDY    58  56  93 CALM      29.94R
EAGLE RIVER    CLOUDY    55  55 100 CALM      29.93R
LAND O LAKES   CLOUDY    57  56  95 CALM      29.94S
PHILLIPS       CLOUDY    59  56  91 N3        29.94R
TOMAHAWK       CLOUDY    58  55  89 CALM      29.93S
MEDFORD        MOCLDY    57  56  95 NE3       29.93R
MERRILL        MOCLDY    58  57  95 N3        29.93R
$$

WIZ029-030-035-036-043>047-310500-
CENTRAL WISCONSIN

CITY           SKY/WX    TMP DP  RH WIND       PRES   REMARKS
WAUSAU         CLOUDY    63  58  83 N3        29.90R
MOSINEE        CLOUDY    63  61  94 CALM      29.92S
MARSHFIELD     CLOUDY    65  60  84 NE3       29.91R
STEVENS POINT  CLOUDY    63  60  91 CALM      29.92R
WAUPACA        MOCLDY    66  64  91 CALM      29.91R
WAUTOMA        PTCLDY    67  65  93 N3        29.90R
WISC RAPIDS    CLOUDY    66  62  87 N3        29.92S
CAMP DOUGLAS   CLOUDY    66  66 100 W3        29.91R
$$

WIZ011>013-019>022-031-037>040-048>050-310500-
NORTHEAST WISCONSIN

CITY           SKY/WX    TMP DP  RH WIND       PRES   REMARKS
ANTIGO         CLOUDY    59  57  94 N5        29.93R
STURGEON BAY   CLOUDY    63  57  82 N9        29.88F
GREEN BAY      CLOUDY    66  62  87 N9        29.89R
MANITOWOC      CLOUDY    68  66  93 VRB3      29.89R
APPLETON       MOCLDY    64  63  94 N5        29.89S
CLINTONVILLE   CLOUDY    64  61  88 N5        29.89S
OSHKOSH        MOCLDY    67  64  90 N6        29.89R
$$

WIZ032>034-041-042-053>061-310500-
SOUTHWEST WISCONSIN

CITY           SKY/WX    TMP DP  RH WIND       PRES   REMARKS
LA CROSSE      MOCLDY    67  63  87 CALM      29.90R
SPARTA         CLOUDY    64  62  93 CALM      29.92R
VIROQUA        FAIR      64  64 100 CALM      29.92R
BOSCOBEL       CLOUDY    70  67  90 W3        29.90R
PRAIRIE DU CHI CLEAR     67  65  91 E3        29.89R
PLATTEVILLE    FAIR      66  64  93 CALM      29.92R
$$

WIZ056-057-062-063-064-067-068-310500-
SOUTH CENTRAL WISCONSIN

CITY           SKY/WX    TMP DP  RH WIND       PRES   REMARKS
BARABOO/DELLS  PTCLDY    67  64  89 CALM      29.91R
LONE ROCK      MOCLDY    72  67  84 SW3       29.90R
WATERTOWN      CLEAR     66  65  99 CALM      29.89R
MADISON        MOCLDY    68  65  90 NW6       29.90R
MIDDLETON      MOCLDY    65  65  98 CALM      29.90S
MONROE         CLEAR     68  64  88 S6        29.91R
JANESVILLE     CLEAR     70  64  83 CALM      29.90R
$$

WIZ051-052-058>065-066-070>072-310500-
SOUTHEAST WISCONSIN

CITY           SKY/WX    TMP DP  RH WIND       PRES   REMARKS
MILWAUKEE      PTCLDY    72  66  81 SW6       29.89R
WAUKESHA       CLEAR     68  64  88 S6        29.90S
MILWAUKEE/TIMM CLEAR     66  63  88 CALM      29.89R
RACINE         CLEAR     71  66  84 SW6       29.90S
BURLINGTON     CLEAR     64  63  97 CALM      29.90S
KENOSHA        CLEAR     68  66  93 SW7       29.90S
FOND DU LAC    CLEAR     68  64  87 N3        29.90R
SHEBOYGAN      CLEAR     66  64  93 CALM      29.88S
WEST BEND      PTCLDY    66  63  88 CALM      29.89R
JUNEAU         CLOUDY    68  67  96 CALM      29.91R
$$

LSZ147-162-310500-
LAKE SUPERIOR

STATION/POSITION TIME  TEMP    WIND        PRES    WAVE
                       AIR SEA DIR/SP/G            HT/PER
                 (UTC) (F)     (DEG/KT/KT) (MB)    (FT/S)
W MID LAKE BUOY  0350   58 58  230/  2/  4 1012.9R   1
DEVILS ISLAND    0400   60     280/  1/  1 1013.3R
PORT WING        0300   61      80/  3/  4 1013.2S
SAXON HARBOR     0300   60        CALM     1013.2F
$$

LMZ867-665-643>646-310500-
LAKE MICHIGAN

STATION/POSITION TIME  TEMP    WIND        PRES    WAVE
                       AIR SEA DIR/SP/G            HT/PER
                 (UTC) (F)     (DEG/KT/KT) (MB)    (FT/S)
N MID LAKE BUOY  0350   63 65  300/ 16/ 19 1010.1R   3/ 4
NORTHPORT PIER   0300   64     310/ 12/ 15 1011.2R
SISTER BAY       0311   64     320/ 16/ 18   N/A
KEWAUNEE LAKESHO 0400   65     340/  5/  8 1011.0R
SHEBOYGAN LAKESH 0400   69 51  330/  5/  6 1011.8R
ATWATER BUOY     0400   67     150/  2/  4 1013.1R
MILWAUKEE LAKESH 0400   73     220/  3/  4   N/A
S MID LAKE BUOY  0350   71 69  220/  8/  8 1012.0R   1/ 4
KENOSHA   LAKESH 0400   73     220/  3/  8 1011.9S
$$

TC  - TEMPERATURE IN CELSIUS
VSB - VISIBILITY IN STATUTE MILES
WCI - WIND CHILL INDEX
HX  - HEAT INDEX




USA.gov is the U.S. government's official web portal to all federal, state and local government web resources and services.